Cleveland, OH

9:48 AM EST on February 23, 2017 (GMT -0500)
Burke Lakefront

Weather History for KBKL - October, 2012

Change the Weather History Date:

Tuesday, October 30, 2012

  Actual Average Record
Temperature  
Mean Temperature 48 °F -  
Max Temperature 48 °F 55 °F 81 °F (2004)
Min Temperature 48 °F 42 °F 35 °F (2008)
Degree Days  
Heating Degree Days 17    
Moisture  
Dew Point 46 °F    
Average Humidity 92    
Maximum Humidity 100    
Minimum Humidity 87    
Precipitation  
Precipitation 0.09 in - - ()
Sea Level Pressure  
Sea Level Pressure 29.28 in    
Wind  
Wind Speed 25 mph (NNW)    
Max Wind Speed 31 mph    
Max Gust Speed 38 mph    
Visibility 8 miles    
Events Rain    
Averages and records for this station are not official NWS values.
T = Trace of Precipitation, MM = Missing Value Source: NWS Daily Summary

Daily Weather History Graph

Daily Weather History Graph

Search for Another Location

Airport or City:

Trip Planner

Search our weather history database for the weather conditions in past years. The results will help you decide how hot, cold, wet, or windy it might be!

Date:

Astronomy

Oct. 30, 2012 Rise Set
Actual Time 7:56 AM EDT 6:23 PM EDT
Civil Twilight 7:27 AM EDT 6:52 PM EDT
Nautical Twilight 6:55 AM EDT 7:24 PM EDT
Astronomical Twilight 6:23 AM EDT 7:56 PM EDT
Moon 6:51 PM EDT (10/30) 8:43 AM EDT (10/30)
Length of Visible Light 11h 24m
Length of Day
10h 26m
Full, 99% of the Moon is Illuminated
Oct 30
Full
Nov 6
Last Quarter
Nov 13
New
Nov 20
First Quarter
Nov 28
Full

Hourly Weather History & Observations

Time (EDT) Temp. Dew Point Humidity Pressure Visibility Wind Dir Wind Speed Gust Speed Precip Events Conditions
12:53 AM - - N/A% 29.36 in - North - - N/A   Unknown
1:53 AM - - N/A% 29.29 in - North - - N/A   Unknown
2:53 AM - - N/A% 29.30 in - North - - N/A   Unknown
3:53 AM - - N/A% 29.28 in - North - - N/A   Unknown
4:53 AM - - N/A% 29.25 in - North - - N/A   Unknown
5:53 AM - - N/A% 29.24 in - North - - N/A   Unknown
7:53 AM - - N/A% 29.21 in - North - - N/A   Unknown
8:53 AM - - N/A% 29.20 in - North - - N/A   Unknown
9:53 AM - - N/A% 29.20 in - North - - N/A   Unknown
10:53 AM - - N/A% 29.21 in - North - - N/A   Unknown
11:53 AM - - N/A% 29.22 in - North - - N/A   Unknown
12:53 PM - - N/A% 29.21 in - North - - N/A   Unknown
1:49 PM 48.2 °F - N/A% 29.22 in 9.0 mi North 25.3 mph 34.5 mph 0.00 in Rain Light Rain
1:53 PM 48.0 °F - N/A% 29.22 in 7.0 mi North 28.8 mph 38.0 mph 0.00 in Rain Light Rain
2:53 PM 48.0 °F 48.0 °F 100% 29.23 in 10.0 mi North 25.3 mph 34.5 mph 0.01 in Rain Light Rain
3:53 PM 48.0 °F 46.0 °F 93% 29.25 in 10.0 mi North 24.2 mph 36.8 mph 0.01 in Rain Light Rain
4:53 PM 48.0 °F 46.0 °F 93% 29.27 in 10.0 mi North 31.1 mph 36.8 mph 0.01 in   Overcast
5:53 PM 48.0 °F 45.0 °F 89% 29.30 in 10.0 mi NNW 24.2 mph 34.5 mph 0.01 in   Overcast
6:53 PM 48.0 °F 45.0 °F 89% 29.31 in 10.0 mi NNW 24.2 mph 34.5 mph 0.01 in   Overcast
8:53 PM 48.0 °F 46.0 °F 93% 29.34 in 9.0 mi NNW 24.2 mph 31.1 mph 0.01 in Rain Rain
9:20 PM 48.2 °F 46.4 °F 93% 29.34 in 4.0 mi NNW 21.9 mph 33.4 mph 0.00 in Rain Light Rain
9:33 PM 48.2 °F 46.4 °F 93% 29.35 in 2.5 mi NNW 25.3 mph 29.9 mph 0.01 in Rain Light Rain
9:42 PM 48.2 °F 46.4 °F 93% 29.35 in 4.0 mi North 20.7 mph 29.9 mph 0.01 in Rain Light Rain
9:53 PM 48.0 °F 46.0 °F 93% 29.35 in 10.0 mi NNW 21.9 mph 29.9 mph 0.01 in Rain Light Rain
10:53 PM 48.0 °F 46.0 °F 93% 29.36 in 10.0 mi NNW 19.6 mph 27.6 mph 0.01 in Rain Light Rain
11:27 PM 48.2 °F 46.4 °F 93% 29.36 in 10.0 mi NNW 20.7 mph 27.6 mph 0.00 in   Overcast
11:37 PM 48.2 °F 44.6 °F 87% 29.36 in 10.0 mi NW 20.7 mph 31.1 mph 0.00 in   Overcast
11:53 PM 48.0 °F 45.0 °F 89% 29.36 in 10.0 mi NW 19.6 mph 27.6 mph 0.01 in Rain Light Rain